Time,TemperatureF,DewpointF,PressureIn,WindDirection,WindDirectionDegrees,WindSpeedMPH,WindSpeedGustMPH,Humidity,HourlyPrecipIn,Conditions,Clouds,dailyrainin,SoftwareType,DateUTC
2013-02-01 00:02:00,13.1,9.2,30.01,SSW,213,10.0,19.0,84,0.00,,,0.00,WUHU216DAVISVP2,2013-02-01 05:02:00,
2013-02-01 00:07:00,13.0,8.8,30.01,SW,216,11.0,19.0,83,0.00,,,0.00,WUHU216DAVISVP2,2013-02-01 05:07:00,
2013-02-01 00:12:00,13.0,8.8,30.02,South,178,10.0,21.0,83,0.00,,,0.00,WUHU216DAVISVP2,2013-02-01 05:12:00,
2013-02-01 00:18:00,12.9,8.7,30.02,SSW,205,8.0,21.0,83,0.00,,,0.00,WUHU216DAVISVP2,2013-02-01 05:18:00,
2013-02-01 00:23:00,12.8,8.6,30.02,SSW,212,10.0,21.0,83,0.00,,,0.00,WUHU216DAVISVP2,2013-02-01 05:23:00,
2013-02-01 00:28:00,12.7,8.5,30.02,SSW,207,11.0,22.0,83,0.00,,,0.00,WUHU216DAVISVP2,2013-02-01 05:28:00,
2013-02-01 00:33:00,12.8,8.6,30.03,SSW,211,12.0,22.0,83,0.00,,,0.00,WUHU216DAVISVP2,2013-02-01 05:33:00,
2013-02-01 00:38:00,12.8,8.6,30.03,SW,231,13.0,21.0,83,0.00,,,0.00,WUHU216DAVISVP2,2013-02-01 05:38:00,
2013-02-01 00:43:00,12.8,8.6,30.03,North,360,11.0,21.0,83,0.00,,,0.00,WUHU216DAVISVP2,2013-02-01 05:43:00,
2013-02-01 00:48:00,12.8,8.6,30.03,SW,215,11.0,19.0,83,0.00,,,0.00,WUHU216DAVISVP2,2013-02-01 05:48:00,
2013-02-01 00:53:00,12.8,8.6,30.03,SSW,209,12.0,21.0,83,0.00,,,0.00,WUHU216DAVISVP2,2013-02-01 05:53:00,
2013-02-01 00:58:00,12.8,8.6,30.03,SSW,194,8.0,21.0,83,0.00,,,0.00,WUHU216DAVISVP2,2013-02-01 05:58:00,
2013-02-01 01:03:00,12.7,8.5,30.03,SSW,207,12.0,20.0,83,0.00,,,0.00,WUHU216DAVISVP2,2013-02-01 06:03:00,
2013-02-01 01:08:00,12.5,8.3,30.04,South,183,10.0,20.0,83,0.00,,,0.00,WUHU216DAVISVP2,2013-02-01 06:08:00,
2013-02-01 01:13:00,12.3,8.1,30.04,SSW,196,14.0,20.0,83,0.00,,,0.00,WUHU216DAVISVP2,2013-02-01 06:13:00,
2013-02-01 01:18:00,11.9,7.7,30.04,SSW,203,9.0,21.0,83,0.00,,,0.00,WUHU216DAVISVP2,2013-02-01 06:18:00,
2013-02-01 01:24:00,11.7,7.5,30.04,SSW,199,9.0,21.0,83,0.00,,,0.00,WUHU216DAVISVP2,2013-02-01 06:24:00,
2013-02-01 01:29:00,11.6,7.4,30.05,South,190,9.0,21.0,83,0.00,,,0.00,WUHU216DAVISVP2,2013-02-01 06:29:00,
2013-02-01 01:34:00,11.6,7.4,30.05,SSW,194,14.0,23.0,83,0.00,,,0.00,WUHU216DAVISVP2,2013-02-01 06:34:00,
2013-02-01 01:39:00,11.4,7.2,30.05,SSW,201,12.0,23.0,83,0.00,,,0.00,WUHU216DAVISVP2,2013-02-01 06:39:00,
2013-02-01 01:44:00,11.2,6.8,30.06,SW,221,7.0,23.0,82,0.00,,,0.00,WUHU216DAVISVP2,2013-02-01 06:44:00,
2013-02-01 01:49:00,11.2,7.0,30.06,SSW,192,11.0,23.0,83,0.00,,,0.00,WUHU216DAVISVP2,2013-02-01 06:49:00,
2013-02-01 01:54:00,11.1,6.7,30.06,South,181,15.0,21.0,82,0.00,,,0.00,WUHU216DAVISVP2,2013-02-01 06:54:00,
2013-02-01 01:59:00,11.1,6.9,30.06,SSW,206,8.0,21.0,83,0.00,,,0.00,WUHU216DAVISVP2,2013-02-01 06:59:00,
2013-02-01 02:04:00,11.1,6.9,30.07,SSW,206,9.0,21.0,83,0.00,,,0.00,WUHU216DAVISVP2,2013-02-01 07:04:00,
2013-02-01 02:10:00,11.0,6.8,30.07,South,188,16.0,21.0,83,0.00,,,0.00,WUHU216DAVISVP2,2013-02-01 07:10:00,
2013-02-01 02:15:00,11.0,6.8,30.08,South,186,11.0,22.0,83,0.00,,,0.00,WUHU216DAVISVP2,2013-02-01 07:15:00,
2013-02-01 02:20:00,10.9,6.8,30.07,SW,224,16.0,22.0,83,0.00,,,0.00,WUHU216DAVISVP2,2013-02-01 07:20:00,
2013-02-01 02:25:00,10.8,6.7,30.08,SSW,210,12.0,25.0,83,0.00,,,0.00,WUHU216DAVISVP2,2013-02-01 07:25:00,
2013-02-01 02:30:00,10.7,6.5,30.08,SW,225,19.0,25.0,83,0.00,,,0.00,WUHU216DAVISVP2,2013-02-01 07:30:00,
2013-02-01 02:35:00,10.7,6.5,30.08,SSW,195,16.0,25.0,83,0.00,,,0.00,WUHU216DAVISVP2,2013-02-01 07:35:00,
2013-02-01 02:40:00,10.6,6.2,30.09,SSW,202,12.0,25.0,82,0.00,,,0.00,WUHU216DAVISVP2,2013-02-01 07:40:00,
2013-02-01 02:45:00,10.4,6.0,30.09,WSW,238,17.0,24.0,82,0.00,,,0.00,WUHU216DAVISVP2,2013-02-01 07:45:00,
2013-02-01 02:50:00,10.3,5.9,30.09,SSW,207,17.0,24.0,82,0.00,,,0.00,WUHU216DAVISVP2,2013-02-01 07:50:00,
2013-02-01 02:55:00,10.2,5.8,30.09,SSW,193,19.0,24.0,82,0.00,,,0.00,WUHU216DAVISVP2,2013-02-01 07:55:00,
2013-02-01 03:00:00,10.2,5.8,30.10,SSW,211,10.0,24.0,82,0.00,,,0.00,WUHU216DAVISVP2,2013-02-01 08:00:00,
2013-02-01 03:05:00,10.1,5.7,30.10,SW,214,14.0,24.0,82,0.00,,,0.00,WUHU216DAVISVP2,2013-02-01 08:05:00,
2013-02-01 03:10:00,10.1,5.9,30.10,SW,235,15.0,24.0,83,0.00,,,0.00,WUHU216DAVISVP2,2013-02-01 08:10:00,
2013-02-01 03:16:00,10.0,5.6,30.10,SSW,209,15.0,23.0,82,0.00,,,0.00,WUHU216DAVISVP2,2013-02-01 08:16:00,
2013-02-01 03:21:00,9.9,5.5,30.11,SSW,206,18.0,23.0,82,0.00,,,0.00,WUHU216DAVISVP2,2013-02-01 08:21:00,
2013-02-01 03:26:00,9.9,5.5,30.11,South,190,19.0,23.0,82,0.00,,,0.00,WUHU216DAVISVP2,2013-02-01 08:26:00,
2013-02-01 03:32:00,9.9,5.5,30.11,SW,220,19.0,24.0,82,0.00,,,0.00,WUHU216DAVISVP2,2013-02-01 08:32:00,
2013-02-01 03:37:00,9.8,5.4,30.11,South,186,11.0,24.0,82,0.00,,,0.00,WUHU216DAVISVP2,2013-02-01 08:37:00,
2013-02-01 03:42:00,9.7,5.3,30.12,SSW,212,16.0,24.0,82,0.00,,,0.00,WUHU216DAVISVP2,2013-02-01 08:42:00,
2013-02-01 03:47:00,9.7,5.3,30.12,SW,223,13.0,24.0,82,0.00,,,0.00,WUHU216DAVISVP2,2013-02-01 08:47:00,
2013-02-01 03:52:00,9.6,5.2,30.12,SW,225,19.0,22.0,82,0.00,,,0.00,WUHU216DAVISVP2,2013-02-01 08:52:00,
2013-02-01 03:57:00,9.5,5.1,30.12,SW,222,10.0,22.0,82,0.00,,,0.00,WUHU216DAVISVP2,2013-02-01 08:57:00,
2013-02-01 04:03:00,9.4,5.0,30.13,SSW,199,9.0,22.0,82,0.00,,,0.00,WUHU216DAVISVP2,2013-02-01 09:03:00,
2013-02-01 04:08:00,9.4,5.0,30.13,SW,230,13.0,21.0,82,0.00,,,0.00,WUHU216DAVISVP2,2013-02-01 09:08:00,
2013-02-01 04:13:00,9.3,4.9,30.14,SW,223,11.0,21.0,82,0.00,,,0.00,WUHU216DAVISVP2,2013-02-01 09:13:00,
2013-02-01 04:18:00,9.3,4.9,30.14,SSW,198,13.0,22.0,82,0.00,,,0.00,WUHU216DAVISVP2,2013-02-01 09:18:00,
2013-02-01 04:23:00,9.2,4.8,30.14,SSW,195,12.0,23.0,82,0.00,,,0.00,WUHU216DAVISVP2,2013-02-01 09:23:00,
2013-02-01 04:28:00,9.2,4.8,30.14,South,180,13.0,25.0,82,0.00,,,0.00,WUHU216DAVISVP2,2013-02-01 09:28:00,
2013-02-01 04:34:00,9.1,4.4,30.14,SSW,211,13.0,25.0,81,0.00,,,0.00,WUHU216DAVISVP2,2013-02-01 09:34:00,
2013-02-01 04:39:00,9.0,4.6,30.15,SSW,196,14.0,25.0,82,0.00,,,0.00,WUHU216DAVISVP2,2013-02-01 09:39:00,
2013-02-01 04:44:00,9.0,4.4,30.15,South,180,17.0,22.0,81,0.00,,,0.00,WUHU216DAVISVP2,2013-02-01 09:44:00,
2013-02-01 04:49:00,9.0,4.4,30.15,SW,228,12.0,24.0,81,0.00,,,0.00,WUHU216DAVISVP2,2013-02-01 09:49:00,
2013-02-01 04:54:00,8.9,4.3,30.16,SW,231,18.0,24.0,81,0.00,,,0.00,WUHU216DAVISVP2,2013-02-01 09:54:00,
2013-02-01 04:59:00,8.9,4.3,30.16,South,187,12.0,24.0,81,0.00,,,0.00,WUHU216DAVISVP2,2013-02-01 09:59:00,
2013-02-01 05:04:00,8.8,4.2,30.16,SSW,205,13.0,26.0,81,0.00,,,0.00,WUHU216DAVISVP2,2013-02-01 10:04:00,
2013-02-01 05:10:00,8.7,4.1,30.16,SSW,207,16.0,26.0,81,0.00,,,0.00,WUHU216DAVISVP2,2013-02-01 10:10:00,
2013-02-01 05:16:00,8.6,4.0,30.17,SSW,204,12.0,26.0,81,0.00,,,0.00,WUHU216DAVISVP2,2013-02-01 10:16:00,
2013-02-01 05:21:00,8.6,4.0,30.17,SSW,209,11.0,26.0,81,0.00,,,0.00,WUHU216DAVISVP2,2013-02-01 10:21:00,
2013-02-01 05:27:00,8.5,3.9,30.18,SSW,196,15.0,26.0,81,0.00,,,0.00,WUHU216DAVISVP2,2013-02-01 10:27:00,
2013-02-01 05:32:00,8.4,3.8,30.18,SSW,192,13.0,23.0,81,0.00,,,0.00,WUHU216DAVISVP2,2013-02-01 10:32:00,
2013-02-01 05:37:00,8.3,3.7,30.18,SW,224,17.0,23.0,81,0.00,,,0.00,WUHU216DAVISVP2,2013-02-01 10:37:00,
2013-02-01 05:42:00,8.3,3.7,30.19,SSW,208,14.0,24.0,81,0.00,,,0.00,WUHU216DAVISVP2,2013-02-01 10:42:00,
2013-02-01 05:47:00,8.2,3.6,30.19,South,189,20.0,24.0,81,0.00,,,0.00,WUHU216DAVISVP2,2013-02-01 10:47:00,
2013-02-01 05:52:00,8.2,3.6,30.19,SW,215,9.0,23.0,81,0.00,,,0.00,WUHU216DAVISVP2,2013-02-01 10:52:00,
2013-02-01 05:57:00,8.1,3.5,30.19,SSW,202,9.0,23.0,81,0.00,,,0.00,WUHU216DAVISVP2,2013-02-01 10:57:00,
2013-02-01 06:02:00,8.1,3.5,30.19,SSW,202,7.0,23.0,81,0.00,,,0.00,WUHU216DAVISVP2,2013-02-01 11:02:00,
2013-02-01 06:07:00,8.1,3.5,30.20,South,190,12.0,24.0,81,0.00,,,0.00,WUHU216DAVISVP2,2013-02-01 11:07:00,
2013-02-01 06:12:00,8.1,3.5,30.20,SSW,203,12.0,24.0,81,0.00,,,0.00,WUHU216DAVISVP2,2013-02-01 11:12:00,
2013-02-01 06:15:00,8.0,3.4,30.21,SSW,203,12.0,24.0,81,0.00,,,0.00,WUHU216DAVISVP2,2013-02-01 11:15:00,
2013-02-01 06:30:00,7.8,3.2,30.22,SSW,203,12.0,22.0,81,0.00,,,0.00,WUHU216DAVISVP2,2013-02-01 11:30:00,
2013-02-01 06:45:00,7.8,2.9,30.22,SSW,203,13.0,22.0,80,0.00,,,0.00,WUHU216DAVISVP2,2013-02-01 11:45:00,
2013-02-01 07:00:00,7.7,2.8,30.23,SSW,203,13.0,22.0,80,0.00,,,0.00,WUHU216DAVISVP2,2013-02-01 12:00:00,
2013-02-01 07:15:00,7.6,2.7,30.24,SSW,203,11.0,20.0,80,0.00,,,0.00,WUHU216DAVISVP2,2013-02-01 12:15:00,
2013-02-01 07:30:00,7.5,2.6,30.25,SSW,203,10.0,19.0,80,0.00,,,0.00,WUHU216DAVISVP2,2013-02-01 12:30:00,
2013-02-01 07:45:00,7.3,2.4,30.25,SSW,203,10.0,19.0,80,0.00,,,0.00,WUHU216DAVISVP2,2013-02-01 12:45:00,
2013-02-01 08:00:00,7.4,2.5,30.26,SSW,203,10.0,18.0,80,0.00,,,0.00,WUHU216DAVISVP2,2013-02-01 13:00:00,
2013-02-01 08:15:00,7.6,2.4,30.27,SSW,203,10.0,18.0,79,0.00,,,0.00,WUHU216DAVISVP2,2013-02-01 13:15:00,
2013-02-01 08:30:00,7.8,2.6,30.28,SSW,203,11.0,20.0,79,0.00,,,0.00,WUHU216DAVISVP2,2013-02-01 13:30:00,
2013-02-01 08:45:00,7.8,2.4,30.29,SSW,203,12.0,20.0,78,0.00,,,0.00,WUHU216DAVISVP2,2013-02-01 13:45:00,
2013-02-01 09:00:00,8.1,2.7,30.30,SSW,203,11.0,19.0,78,0.00,,,0.00,WUHU216DAVISVP2,2013-02-01 14:00:00,
2013-02-01 09:15:00,8.5,2.8,30.31,SSW,203,12.0,20.0,77,0.00,,,0.00,WUHU216DAVISVP2,2013-02-01 14:15:00,
2013-02-01 09:30:00,8.7,2.7,30.31,SSW,203,13.0,23.0,76,0.00,,,0.00,WUHU216DAVISVP2,2013-02-01 14:30:00,
2013-02-01 09:45:00,8.7,2.7,30.32,SSW,203,14.0,23.0,76,0.00,,,0.00,WUHU216DAVISVP2,2013-02-01 14:45:00,
2013-02-01 10:00:00,9.6,3.6,30.32,SW,225,13.0,23.0,76,0.00,,,0.00,WUHU216DAVISVP2,2013-02-01 15:00:00,
2013-02-01 10:15:00,10.4,4.3,30.33,SSW,203,12.0,20.0,76,0.00,,,0.00,WUHU216DAVISVP2,2013-02-01 15:15:00,
2013-02-01 10:30:00,11.0,4.6,30.33,SW,225,11.0,20.0,75,0.00,,,0.00,WUHU216DAVISVP2,2013-02-01 15:30:00,
2013-02-01 10:45:00,11.2,4.5,30.34,SSW,203,13.0,23.0,74,0.00,,,0.00,WUHU216DAVISVP2,2013-02-01 15:45:00,
2013-02-01 11:00:00,11.8,5.1,30.34,SSW,203,12.0,22.0,74,0.00,,,0.00,WUHU216DAVISVP2,2013-02-01 16:00:00,
2013-02-01 11:15:00,12.6,5.3,30.35,SW,225,12.0,22.0,72,0.00,,,0.00,WUHU216DAVISVP2,2013-02-01 16:15:00,
2013-02-01 11:30:00,12.4,4.8,30.36,SSW,203,13.0,23.0,71,0.00,,,0.00,WUHU216DAVISVP2,2013-02-01 16:30:00,
2013-02-01 11:45:00,12.6,5.0,30.35,SSW,203,15.0,25.0,71,0.00,,,0.00,WUHU216DAVISVP2,2013-02-01 16:45:00,
2013-02-01 12:00:00,13.1,5.8,30.36,SSW,203,13.0,20.0,72,0.00,,,0.00,WUHU216DAVISVP2,2013-02-01 17:00:00,
2013-02-01 12:15:00,13.6,6.2,30.36,SSW,203,13.0,24.0,72,0.00,,,0.00,WUHU216DAVISVP2,2013-02-01 17:15:00,
2013-02-01 12:30:00,13.6,5.9,30.35,SSW,203,15.0,22.0,71,0.00,,,0.00,WUHU216DAVISVP2,2013-02-01 17:30:00,
2013-02-01 12:45:00,14.2,6.5,30.35,SSW,203,13.0,23.0,71,0.00,,,0.00,WUHU216DAVISVP2,2013-02-01 17:45:00,
2013-02-01 13:00:00,14.4,6.7,30.35,SSW,203,11.0,18.0,71,0.00,,,0.00,WUHU216DAVISVP2,2013-02-01 18:00:00,
2013-02-01 13:15:00,15.3,7.9,30.35,SSW,203,11.0,19.0,72,0.00,,,0.00,WUHU216DAVISVP2,2013-02-01 18:15:00,
2013-02-01 13:30:00,14.8,7.1,30.35,SSW,203,12.0,19.0,71,0.00,,,0.00,WUHU216DAVISVP2,2013-02-01 18:30:00,
2013-02-01 13:45:00,13.9,5.9,30.36,SSW,203,13.0,21.0,70,0.00,,,0.00,WUHU216DAVISVP2,2013-02-01 18:45:00,
2013-02-01 14:00:00,13.7,5.4,30.36,SSW,203,13.0,22.0,69,0.00,,,0.00,WUHU216DAVISVP2,2013-02-01 19:00:00,
2013-02-01 14:15:00,13.1,5.1,30.36,SSW,203,12.0,20.0,70,0.00,,,0.00,WUHU216DAVISVP2,2013-02-01 19:15:00,
2013-02-01 14:30:00,12.7,5.4,30.36,SSW,203,12.0,21.0,72,0.00,,,0.00,WUHU216DAVISVP2,2013-02-01 19:30:00,
2013-02-01 14:45:00,13.1,6.4,30.36,SSW,203,10.0,17.0,74,0.00,,,0.00,WUHU216DAVISVP2,2013-02-01 19:45:00,
2013-02-01 15:00:00,12.6,5.0,30.36,SSW,203,11.0,20.0,71,0.00,,,0.00,WUHU216DAVISVP2,2013-02-01 20:00:00,
2013-02-01 15:15:00,12.7,5.7,30.36,SSW,203,10.0,20.0,73,0.00,,,0.00,WUHU216DAVISVP2,2013-02-01 20:15:00,
2013-02-01 15:30:00,13.4,5.7,30.36,SSW,203,10.0,18.0,71,0.00,,,0.00,WUHU216DAVISVP2,2013-02-01 20:30:00,
2013-02-01 15:45:00,13.2,5.6,30.36,SSW,203,11.0,20.0,71,0.00,,,0.00,WUHU216DAVISVP2,2013-02-01 20:45:00,
2013-02-01 16:00:00,12.6,4.7,30.36,SSW,203,9.0,20.0,70,0.00,,,0.00,WUHU216DAVISVP2,2013-02-01 21:00:00,
2013-02-01 16:15:00,12.8,4.9,30.36,SSW,203,9.0,19.0,70,0.00,,,0.00,WUHU216DAVISVP2,2013-02-01 21:15:00,
2013-02-01 16:30:00,12.3,5.0,30.36,SSW,203,10.0,19.0,72,0.00,,,0.00,WUHU216DAVISVP2,2013-02-01 21:30:00,
2013-02-01 16:45:00,11.3,4.0,30.36,SSW,203,11.0,23.0,72,0.00,,,0.00,WUHU216DAVISVP2,2013-02-01 21:45:00,
2013-02-01 17:00:00,11.5,4.5,30.37,SSW,203,10.0,18.0,73,0.00,,,0.00,WUHU216DAVISVP2,2013-02-01 22:00:00,
2013-02-01 17:15:00,11.6,4.9,30.37,SSW,203,9.0,16.0,74,0.00,,,0.00,WUHU216DAVISVP2,2013-02-01 22:15:00,
2013-02-01 17:30:00,11.1,4.7,30.36,SSW,203,9.0,18.0,75,0.00,,,0.00,WUHU216DAVISVP2,2013-02-01 22:30:00,
2013-02-01 17:45:00,11.1,4.4,30.36,SSW,203,9.0,21.0,74,0.00,,,0.00,WUHU216DAVISVP2,2013-02-01 22:45:00,
2013-02-01 18:00:00,11.1,4.4,30.36,SSW,203,9.0,16.0,74,0.00,,,0.00,WUHU216DAVISVP2,2013-02-01 23:00:00,
2013-02-01 18:15:00,11.2,4.8,30.37,SSW,203,8.0,16.0,75,0.00,,,0.00,WUHU216DAVISVP2,2013-02-01 23:15:00,
2013-02-01 18:30:00,11.4,5.0,30.36,SSW,203,7.0,16.0,75,0.00,,,0.00,WUHU216DAVISVP2,2013-02-01 23:30:00,
2013-02-01 18:45:00,11.5,4.8,30.36,SSW,203,8.0,15.0,74,0.00,,,0.00,WUHU216DAVISVP2,2013-02-01 23:45:00,
2013-02-01 19:00:00,11.7,5.3,30.37,SSW,203,6.0,14.0,75,0.00,,,0.00,WUHU216DAVISVP2,2013-02-02 00:00:00,
2013-02-01 19:15:00,11.7,5.3,30.37,SSW,203,6.0,15.0,75,0.00,,,0.00,WUHU216DAVISVP2,2013-02-02 00:15:00,
2013-02-01 19:30:00,11.8,5.4,30.37,SSW,203,6.0,14.0,75,0.00,,,0.00,WUHU216DAVISVP2,2013-02-02 00:30:00,
2013-02-01 19:45:00,11.9,5.5,30.36,South,180,5.0,11.0,75,0.00,,,0.00,WUHU216DAVISVP2,2013-02-02 00:45:00,
2013-02-01 20:00:00,11.9,5.8,30.36,South,180,5.0,9.0,76,0.00,,,0.00,WUHU216DAVISVP2,2013-02-02 01:00:00,
2013-02-01 20:15:00,12.1,6.0,30.36,South,180,4.0,9.0,76,0.00,,,0.00,WUHU216DAVISVP2,2013-02-02 01:15:00,
2013-02-01 20:30:00,12.5,6.4,30.35,South,180,5.0,12.0,76,0.00,,,0.00,WUHU216DAVISVP2,2013-02-02 01:30:00,
2013-02-01 20:45:00,12.6,6.8,30.35,South,180,5.0,9.0,77,0.00,,,0.00,WUHU216DAVISVP2,2013-02-02 01:45:00,
2013-02-01 21:00:00,12.6,6.8,30.34,South,180,4.0,10.0,77,0.00,,,0.00,WUHU216DAVISVP2,2013-02-02 02:00:00,
2013-02-01 21:15:00,12.6,7.0,30.34,South,180,5.0,12.0,78,0.00,,,0.00,WUHU216DAVISVP2,2013-02-02 02:15:00,
2013-02-01 21:30:00,12.6,6.8,30.33,South,180,5.0,11.0,77,0.00,,,0.00,WUHU216DAVISVP2,2013-02-02 02:30:00,
2013-02-01 21:45:00,12.6,6.8,30.34,South,180,5.0,9.0,77,0.00,,,0.00,WUHU216DAVISVP2,2013-02-02 02:45:00,
2013-02-01 22:00:00,12.6,6.8,30.34,South,180,5.0,9.0,77,0.00,,,0.00,WUHU216DAVISVP2,2013-02-02 03:00:00,
2013-02-01 22:15:00,12.6,6.8,30.34,South,180,5.0,11.0,77,0.00,,,0.00,WUHU216DAVISVP2,2013-02-02 03:15:00,
2013-02-01 22:30:00,12.6,6.8,30.34,South,180,5.0,10.0,77,0.00,,,0.00,WUHU216DAVISVP2,2013-02-02 03:30:00,
2013-02-01 22:45:00,12.8,6.9,30.33,South,180,6.0,10.0,77,0.00,,,0.00,WUHU216DAVISVP2,2013-02-02 03:45:00,
2013-02-01 23:00:00,12.7,7.1,30.32,South,180,4.0,10.0,78,0.00,,,0.00,WUHU216DAVISVP2,2013-02-02 04:00:00,
2013-02-01 23:15:00,12.5,6.9,30.32,South,180,4.0,10.0,78,0.00,,,0.00,WUHU216DAVISVP2,2013-02-02 04:15:00,
2013-02-01 23:30:00,12.3,7.0,30.32,SSE,158,4.0,9.0,79,0.00,,,0.00,WUHU216DAVISVP2,2013-02-02 04:30:00,
2013-02-01 23:45:00,12.2,7.2,30.31,South,180,4.0,9.0,80,0.00,,,0.00,WUHU216DAVISVP2,2013-02-02 04:45:00,